This demonstration page uses our WeatherBlox Daily Observations layout. Learn more.

Left ArrowRight Arrow

Hourly Observations for January 8, 2022

Temp ( °F °C ) Dew Point ( °F °C ) Humidity (%) Winds ( mph kmh ) Pressure ( in mb ) Visibility ( mi km ) Precip ( " mm )
12:52 am 00:52 Mostly Clear 19 -7.2 9 -12.8 65 65 S 20 31 29.94 1014 10 16 0.00 0.00
1:52 am 01:52 Mostly Clear 19 -7.2 9 -12.8 65 65 SSE 17 28 29.91 1013 10 16 0.00 0.00
2:52 am 02:52 Clear 19 -7.2 10 -12.2 68 68 SSE 15 24 29.89 1012 10 16 0.00 0.00
3:52 am 03:52 Clear 20 -6.7 11 -11.7 68 68 S 17 28 29.87 1012 10 16 0.00 0.00
4:52 am 04:52 Clear 20 -6.7 13 -10.6 74 74 SSE 18 30 29.85 1011 10 16 0.00 0.00
5:52 am 05:52 Partly Cloudy 22 -5.6 14 -10 71 71 SSE 17 28 29.84 1011 10 16 0.00 0.00
6:52 am 06:52 Partly Cloudy 22 -5.6 15 -9.4 75 75 S 12 19 29.84 1011 10 16 0.00 0.00
7:30 am 07:30 Mostly Cloudy 23 -5 16 -8.9 74 74 S 13 20 29.87 1012 10 16 0.00 0.00
7:45 am 07:45 Mostly Cloudy 23 -5 16 -8.9 74 74 S 13 20 29.86 1011 10 16 0.00 0.00
7:52 am 07:52 Cloudy 24 -4.4 17 -8.3 75 75 S 13 20 29.83 1010 10 16 0.00 0.00
8:38 am 08:38 Cloudy 27 -2.8 21 -6.1 78 78 S 14 22 29.86 1011 10 16 0.00 0.00
8:52 am 08:52 Cloudy 27 -2.8 21 -6.1 78 78 S 14 22 29.84 1010 10 16 0.00 0.00
9:52 am 09:52 Cloudy 29 -1.7 23 -5 78 78 S 12 19 29.85 1011 10 16 0.00 0.00
10:52 am 10:52 Cloudy 31 -0.6 26 -3.3 82 82 S 15 24 29.83 1010 10 16 0.00 0.00
11:52 am 11:52 Cloudy 33 0.6 27 -2.8 78 78 S 15 24 29.80 1009 10 16 0.00 0.00
12:52 pm 12:52 Cloudy 34 1.1 28 -2.2 79 79 S 12 19 29.79 1009 10 16 0.00 0.00
1:52 pm 13:52 Cloudy 35 1.7 30 -1.1 82 82 S 8 13 29.78 1009 10 16 0.00 0.00
2:52 pm 14:52 Cloudy 35 1.7 30 -1.1 82 82 SSE 8 13 29.80 1009 10 16 0.00 0.00
3:52 pm 15:52 Cloudy with Mist and Fog 34 1.1 31 -0.6 89 89 SSE 6 9 29.84 1010 6 10 0.00 0.00
4:52 pm 16:52 Cloudy with Mist and Fog 33 0.6 30 -1.1 89 89 SSE 5 7 29.87 1012 6 10 0.00 0.00
5:24 pm 17:24 Cloudy with Mist and Fog 31 -0.6 29 -1.7 92 92 SSE 5 7 29.91 1013 6 10 0.00 0.00
5:47 pm 17:47 Cloudy with Mist and Fog 32 0 30 -1 93 93 E 3 6 29.93 1014 6 10 0.00 0.00
5:52 pm 17:52 Cloudy with Mist and Fog 32 0 30 -1.1 92 92 ESE 3 6 29.92 1013 6 10 0.00 0.00
6:52 pm 18:52 Cloudy with Mist and Fog 32 0 30 -1.1 92 92 Calm 29.96 1015 6 10 0.00 0.00
7:52 pm 19:52 Cloudy 37 2.8 24 -4.4 59 59 NNW 18 30 30.01 1016 10 16 0.00 0.00
8:52 pm 20:52 Cloudy 32 0 22 -5.6 66 66 N 24 39 30.07 1018 10 16 0.00 0.00
9:52 pm 21:52 Cloudy 29 -1.7 18 -7.8 63 63 N 23 37 30.14 1021 10 16 0.00 0.00
10:52 pm 22:52 Cloudy 24 -4.4 11 -11.7 57 57 N 25 41 30.22 1023 10 16 0.00 0.00
11:52 pm 23:52 Cloudy 21 -6.1 8 -13.3 57 57 N 21 33 30.32 1027 10 16 0.00 0.00

Powered by AerisWeather